Location: Artiguedieu
(43.5000°N, 0.5454°E)
Time: 21:13:37
(UTC+00:00)

Vanguard 1 - Pass Details

Date: 04 August 2021
Orbit: 652 x 3831 km, 34.3° (Epoch: 19 September)

Event Time Altitude Azimuth Distance (km) Brightness Sun altitude
Rises 14:10:47 0° 264° (W) 3,612 13.5 52.4°
Reaches altitude 10° 14:13:17 10° 252° (WSW) 2,929 13.3 52.0°
Maximum altitude 14:19:23 29° 195° (SSW) 2,461 13.1 51.1°
Drops below altitude 10° 14:29:07 10° 142° (SE) 4,777 13.6 49.5°
Sets 14:34:38 0° 133° (SE) 6,365 14.1 48.7°
